Tracking 28126 objects as of 2-Oct-2023
HD Live streaming from Space Station
objects crossing your sky now

STARLINK-6205

Track STARLINK-6205 now!
10-day predictions
STARLINK-6205 is classified as:


NORAD ID: 56898
Int'l Code: 2023-083Y
Perigee: 565.4 km
Apogee: 567.1 km
Inclination: 43.0 °
Period: 95.8 minutes
Semi major axis: 6937 km
RCS: Unknown
Launch date: June 12, 2023
Source: United States (US)
Launch site: AIR FORCE EASTERN TEST RANGE (AFETR)
Your satellite tracking list
Your tracking list is empty




NASA's NSSDC Master Catalog

Two Line Element Set (TLE):
1 56898U 23083Y   23274.40926434  .00026799  00000-0  19922-2 0  9990
2 56898  43.0014 238.9156 0001188 286.8461  73.2251 15.02520332 17862
Source of the keplerian elements: AFSPC